Weather History for Evanston, WY

Change the Weather History Date:

Monday, March 18, 2013

  Actual Average Record
Temperature  
Mean Temperature 29 °F 32 °F  
Max Temperature 37 °F 41 °F 62 °F (2007)
Min Temperature 21 °F 23 °F 5 °F (2002)
Degree Days  
Heating Degree Days 36 33  
Month to date heating degree days 571 651  
Since 1 July heating degree days 6166 6659  
Cooling Degree Days 0 0  
Month to date cooling degree days 0 0  
Year to date cooling degree days 0 0  
Moisture  
Dew Point 15 °F    
Average Humidity 60    
Maximum Humidity 84    
Minimum Humidity 35    
Precipitation  
Precipitation 0.00 in 0.02 in 0.09 in (2003)
Month to date precipitation 0.16 0.38  
Year to date precipitation 0.63 1.53  
Sea Level Pressure  
Sea Level Pressure 30.03 in    
Wind  
Wind Speed 15 mph (WSW)    
Max Wind Speed 31 mph    
Max Gust Speed 39 mph    
Visibility 10 miles    
Events      
T = Trace of Precipitation, MM = Missing Value Source: NWS Daily Summary

Daily Weather History Graph

Daily Weather History Graph

Search for Another Location

Airport:

Trip Planner

Search our weather history database for the weather conditions in past years. The results will help you decide how hot, cold, wet, or windy it might be!

Date:

Astronomy

Mar. 18, 2013 Rise Set
Actual Time 7:30 AM MDT 7:34 PM MDT
Civil Twilight 7:02 AM MDT 8:01 PM MDT
Nautical Twilight 6:30 AM MDT 8:34 PM MDT
Astronomical Twilight 5:57 AM MDT 9:07 PM MDT
Moon 11:29 AM MDT (3/18) 1:40 AM MDT (3/18)
Length of Visible Light 12h 59m
Length of Day
12h 04m
Waxing Crescent, 41% of the Moon is Illuminated
Mar 18
Waxing Crescent
Mar 19
First Quarter
Mar 27
Full
Apr 2
Last Quarter
Apr 10
New

Hourly Weather History & Observations

Time (MDT) Temp. Windchill Dew Point Humidity Pressure Visibility Wind Dir Wind Speed Gust Speed Precip Events Conditions
12:53 AM 21.9 °F 14.5 °F 10.0 °F 60% 30.00 in 10.0 mi SW 5.8 mph - N/A   Mostly Cloudy
1:53 AM 21.9 °F 12.5 °F 12.0 °F 66% 29.99 in 10.0 mi SW 8.1 mph - N/A   Clear
2:53 AM 24.1 °F 14.4 °F 12.0 °F 60% 29.99 in 10.0 mi West 9.2 mph - N/A   Overcast
3:53 AM 21.9 °F 15.7 °F 12.9 °F 68% 30.02 in 10.0 mi West 4.6 mph - N/A   Clear
4:53 AM 23.0 °F 12.4 °F 12.9 °F 65% 30.01 in 10.0 mi WSW 10.4 mph - N/A   Overcast
5:38 AM 21.2 °F 9.5 °F 15.8 °F 80% 29.96 in 10.0 mi WSW 11.5 mph - N/A   Overcast
5:53 AM 21.9 °F 11.0 °F 16.0 °F 78% 30.01 in 10.0 mi WSW 10.4 mph - N/A   Overcast
6:53 AM 21.9 °F 10.4 °F 18.0 °F 85% 30.02 in 10.0 mi SW 11.5 mph - N/A   Overcast
7:05 AM 21.2 °F 8.9 °F 17.6 °F 86% 29.96 in 10.0 mi SW 12.7 mph - N/A   Overcast
7:53 AM 21.9 °F 12.5 °F 19.0 °F 89% 30.06 in 10.0 mi SW 8.1 mph - N/A   Overcast
8:42 AM 23.0 °F 10.6 °F 17.6 °F 80% 30.01 in 10.0 mi SW 13.8 mph - N/A   Scattered Clouds
8:53 AM 25.0 °F 13.1 °F 18.0 °F 75% 30.09 in 10.0 mi SW 13.8 mph - N/A   Partly Cloudy
9:20 AM 28.4 °F 17.0 °F 15.8 °F 59% 30.02 in 10.0 mi West 15.0 mph - N/A   Overcast
9:53 AM 28.9 °F 16.1 °F 14.0 °F 54% 30.08 in 10.0 mi West 19.6 mph 25.3 mph N/A   Partly Cloudy
10:53 AM 30.9 °F 19.1 °F 14.0 °F 50% 30.06 in 10.0 mi WSW 18.4 mph 29.9 mph N/A   Mostly Cloudy
11:53 AM 30.9 °F 19.1 °F 12.9 °F 47% 30.07 in 10.0 mi West 18.4 mph 26.5 mph N/A   Overcast
12:53 PM 35.1 °F 23.3 °F 15.1 °F 44% 30.04 in 10.0 mi West 23.0 mph 34.5 mph N/A   Overcast
1:53 PM 34.0 °F 20.8 °F 17.1 °F 50% 30.04 in 10.0 mi West 27.6 mph 36.8 mph N/A   Overcast
2:53 PM 36.0 °F 25.0 °F 15.1 °F 43% 30.01 in 10.0 mi West 20.7 mph 31.1 mph N/A   Mostly Cloudy
3:53 PM 36.0 °F 24.4 °F 12.9 °F 39% 30.02 in 10.0 mi West 23.0 mph 34.5 mph N/A   Mostly Cloudy
4:53 PM 34.0 °F 22.1 °F 10.9 °F 38% 30.03 in 10.0 mi WSW 21.9 mph 33.4 mph N/A   Mostly Cloudy
5:53 PM 34.0 °F 21.5 °F 12.0 °F 40% 30.04 in 10.0 mi West 24.2 mph 34.5 mph N/A   Partly Cloudy
6:53 PM 34.0 °F 24.2 °F 12.9 °F 42% 30.04 in 10.0 mi West 15.0 mph 28.8 mph N/A   Clear
7:53 PM 28.9 °F 21.1 °F 14.0 °F 54% 30.06 in 10.0 mi West 8.1 mph - N/A   Clear
8:53 PM 28.0 °F 19.3 °F 15.1 °F 58% 30.06 in 10.0 mi SW 9.2 mph - N/A   Clear
9:53 PM 30.0 °F 18.7 °F 15.1 °F 54% 30.05 in 10.0 mi WSW 16.1 mph - N/A   Clear
10:53 PM 28.9 °F 18.6 °F 15.1 °F 56% 30.06 in 10.0 mi WSW 12.7 mph - N/A   Clear
11:53 PM 27.0 °F 18.0 °F 14.0 °F 58% 30.09 in 10.0 mi West 9.2 mph - N/A   Clear